This demonstration page uses our WeatherBlox Daily Observations layout. Learn more.

Left ArrowRight Arrow

Hourly Observations for September 14, 2021

Temp ( °F °C ) Dew Point ( °F °C ) Humidity (%) Winds ( mph kmh ) Pressure ( in mb ) Visibility ( mi km ) Precip ( " mm )
12:51 am 00:51 Clear 74 23.3 49 9.4 41 41 N N/A 29.76 1008 10 16 N/A
1:51 am 01:51 Clear 70 21.1 50 10 49 49 N N/A 29.76 1008 10 16 N/A
2:51 am 02:51 Clear 68 20 49 9.4 51 51 S 6 9 29.77 1008 10 16 N/A
3:51 am 03:51 Clear 66 18.9 49 9.4 54 54 E 5 7 29.78 1008 10 16 N/A
4:51 am 04:51 Clear 64 17.8 50 10 60 60 N N/A 29.80 1009 10 16 N/A
5:51 am 05:51 Clear 64 17.8 49 9.4 58 58 E 3 6 29.81 1010 10 16 N/A
6:51 am 06:51 Sunny 68 20 50 10 53 53 SE 5 7 29.85 1011 10 16 N/A
7:51 am 07:51 Sunny 74 23.3 49 9.4 41 41 SE 3 6 29.86 1011 10 16 N/A
8:51 am 08:51 Sunny 80 26.7 50 10 35 35 N N/A 29.85 1011 10 16 N/A
9:51 am 09:51 Sunny 85 29.4 50 10 30 30 VRB 3 6 29.85 1011 10 16 N/A
10:51 am 10:51 Sunny 92 33.3 51 10.6 25 25 WNW 12 19 29.83 1010 10 16 N/A
11:51 am 11:51 Sunny 95 35 51 10.6 23 23 WNW 14 22 29.80 1009 10 16 N/A
12:51 pm 12:51 Sunny 98 36.7 48 8.9 18 18 W 20 31 29.76 1008 10 16 N/A
1:51 pm 13:51 Sunny 99 37.2 45 7.2 16 16 W 13 20 29.74 1007 10 16 N/A
2:51 pm 14:51 Sunny 100 37.8 45 7.2 15 15 WNW 15 24 29.72 1006 10 16 N/A
3:51 pm 15:51 Sunny 99 37.2 44 6.7 15 15 W 14 22 29.71 1006 10 16 N/A
4:51 pm 16:51 Sunny 97 36.1 44 6.7 16 16 NW 18 30 29.70 1006 10 16 N/A
5:51 pm 17:51 Sunny 94 34.4 44 6.7 18 18 NW 16 26 29.72 1006 10 16 N/A
6:51 pm 18:51 Clear 88 31.1 44 6.7 22 22 NW 12 19 29.73 1007 10 16 N/A
7:51 pm 19:51 Clear 85 29.4 43 6.1 23 23 NW 10 17 29.74 1007 10 16 N/A
8:51 pm 20:51 Clear 81 27.2 44 6.7 27 27 WNW 10 17 29.76 1008 10 16 N/A
9:51 pm 21:51 Clear 80 26.7 44 6.7 28 28 WNW 10 17 29.76 1008 10 16 N/A
10:51 pm 22:51 Clear 77 25 45 7.2 32 32 NW 9 15 29.75 1008 10 16 N/A
11:51 pm 23:51 Clear 73 22.8 46 7.8 38 38 WNW 9 15 29.76 1008 10 16 N/A

Powered by AerisWeather